Location: Caltech
(34.1382°N, 118.1253°W)
Time: 01:40:18
(UTC-07:00)

Cosmos 2251 Rocket - Visible Passes

Search period start: 23 October 2014 00:00
Search period end: 02 November 2014 00:00
Orbit: 766 x 792 km, 74.0° (Epoch: 22 October)

Date Brightness Start Highest point End Pass type
(mag) Time Alt. Az. Time Alt. Az. Time Alt. Az.
23 Oct 3.6 20:00:34 10° NNW 20:05:51 78° WSW 20:08:50 27° S visible
24 Oct 3.5 19:26:58 10° N 19:32:13 63° ENE 19:37:28 10° SSE visible
24 Oct 6.5 21:11:56 10° WNW 21:13:52 12° W 21:15:49 10° WSW visible
25 Oct 4.0 18:53:36 10° N 18:58:31 38° ENE 19:03:26 10° SE visible
25 Oct 5.9 20:36:37 10° NW 20:40:29 21° W 20:44:21 10° SW visible
26 Oct 5.1 20:02:17 10° NW 20:07:02 35° W 20:11:48 10° SSW visible
27 Oct 4.1 19:28:19 10° NNW 19:33:31 59° WSW 19:38:43 10° S visible
28 Oct 3.5 18:54:36 10° NNW 18:59:55 84° ENE 19:05:15 10° SSE visible
29 Oct 3.7 18:21:06 10° N 18:26:15 50° ENE 18:31:24 10° SE visible
29 Oct 6.5 20:05:00 10° WNW 20:08:03 16° W 20:11:07 10° SW visible
30 Oct 5.8 19:30:17 10° NW 19:34:38 26° W 19:38:59 10° SSW visible
31 Oct 6.8 06:43:26 10° SE 06:46:12 15° E 06:48:58 10° ENE visible
31 Oct 4.9 18:56:08 10° NNW 19:01:09 44° WSW 19:06:10 10° S visible
01 Nov 3.9 18:22:18 10° NNW 18:27:35 74° WSW 18:32:54 10° S visible
